星链-1704 (STARLINK-1704 )

导读 | 星芒AI

STARLINK-1704 是 SpaceX Starlink 项目中的一颗低轨通信卫星,属于第 47 批组网发射的卫星之一。该卫星于 2021 年 10 月 31 日由猎鹰 9 号火箭送入近地轨道,旨在为全球用户提供高速互联网服务。它运行在约 550 公里的高度,采用先进的相控阵天线和激光通信技术,以提升连接速度和稳定性。STARLINK-1704 与其他 Starlink 卫星协同工作,逐步构建覆盖全球的卫星互联网网络。

基本信息
目录编号:
47625
目录名称:
STARLINK-1704
国际标识:
2021-012F
轨道中心:
EARTH
卫星名称:
星链-1704
卫星全名:
星链-1704 (STARLINK-1704 )
卫星状态:
在轨 (已飞行1764 天)
发射日期:
2021-02-16 UTC
国别 :
美国 (US)
星等 :
--
轨道信息
数据来源 国际轨道数据
星历时间: 2025-12-16T08:00:03+0800
8小时前
查看轨道信息
半长轴: 6916.888km
偏心率: 0.00016
轨道倾角: 53.055°
近地点辐角 102.199°
升交点赤经 87.225°
平近点角 352.680°
近地点: 537.646km
远地点: 539.86km
周期: 95.417分钟
每日圈数: 15.091648
详细信息
固有亮度:
5
最大亮度:
2.5
卫星平台:
Starlink V1.0
覆盖范围:
全球
运营商:
太空探索技术公司
运营商所在国:
美国
制造商(研发单位):
太空探索技术公司
制造商所在国:
美国
使用方式:
暂无
卫星简介
星链(Starlink)计划是由太空探索技术公司(SpaceX)提出的一个巨型低轨卫星互联网星座项目,计划在2019年至2024年间在太空搭建由约1.2万颗卫星组成的“星链”网络,其中1584颗将部署在地球上空550千米处的近地轨道,并从2020年开始工作。该卫星仍在工作。
2D轨道图
3D轨道图
轨道高度分析图
轨道倾角分析图
轨道综合分析图
查看轨道综合分析图